Simultaneous Nadir Overpasses (SNOs) Predictions

Prediction of SNOs between GOES-16 and METOP-B Satellite Orbit:

Table of predicted SNOs for the next 14.0 days since TLE Epoch: 5/22/2020
Index Date Time (GOES-16) GOES-16 Lat,Lon METOP-B Lat,Lon Distance(km) Time Diff (sec)
1 05/23/2020 14:17:28 0.03, -75.21 -0.82, -71.54 418.71 80
2 05/25/2020 02:36:28 -0.02, -75.19 -0.22, -76.13 107.57 80
3 05/26/2020 02:13:09 -0.02, -75.19 0.91, -71.14 461.54 80
4 05/27/2020 14:31:59 0.01, -75.21 0.15, -75.69 55.81 80
5 05/30/2020 02:33:00 -0.01, -75.20 -0.05, -75.29 11.97 80
6 06/01/2020 14:31:12 0.00, -75.23 -0.08, -74.87 41.99 80
7 06/03/2020 02:50:12 -0.00, -75.23 -0.95, -79.46 482.34 80
8 06/04/2020 02:26:53 0.00, -75.24 0.18, -74.47 87.87 80
9 06/05/2020 14:45:44 -0.01, -75.28 0.82, -79.03 427.90 80




NCC Satellite Simultaneous Nadir Overpasses (SNOs) Prediction Service
